Time,TemperatureF,DewpointF,PressureIn,WindDirection,WindDirectionDegrees,WindSpeedMPH,WindSpeedGustMPH,Humidity,HourlyPrecipIn,Conditions,Clouds,dailyrainin,SolarRadiationWatts/m^2,SoftwareType,DateUTC
2013-08-08 00:12:00,71.1,69.0,29.86,North,359,5.0,-999.0,94,-99.99,,,0.00,0,weatherlink.com 1.10,2013-08-08 04:12:00,
2013-08-08 00:27:00,70.8,69.0,29.86,North,4,2.0,-999.0,93,-99.99,,,0.00,0,weatherlink.com 1.10,2013-08-08 04:27:00,
2013-08-08 00:42:00,70.7,69.0,29.87,North,354,2.0,-999.0,93,-99.99,,,0.00,0,weatherlink.com 1.10,2013-08-08 04:42:00,
2013-08-08 00:57:00,70.7,69.0,29.87,WNW,297,2.0,-999.0,94,-99.99,,,0.00,0,weatherlink.com 1.10,2013-08-08 04:57:00,
2013-08-08 01:12:00,70.6,69.0,29.87,NNW,331,0.0,-999.0,94,-99.99,,,0.00,0,weatherlink.com 1.10,2013-08-08 05:12:00,
2013-08-08 01:27:00,70.1,68.0,29.88,North,349,0.0,-999.0,94,-99.99,,,0.00,0,weatherlink.com 1.10,2013-08-08 05:27:00,
2013-08-08 01:42:00,69.8,68.0,29.88,North,349,0.0,-999.0,95,-99.99,,,0.00,0,weatherlink.com 1.10,2013-08-08 05:42:00,
2013-08-08 01:57:00,69.5,68.0,29.88,North,349,2.0,-999.0,95,-99.99,,,0.00,0,weatherlink.com 1.10,2013-08-08 05:57:00,
2013-08-08 02:12:00,69.6,69.0,29.88,North,11,0.0,-999.0,96,-99.99,,,0.00,0,weatherlink.com 1.10,2013-08-08 06:12:00,
2013-08-08 02:27:00,69.7,69.0,29.88,NNE,22,2.0,-999.0,96,-99.99,,,0.00,0,weatherlink.com 1.10,2013-08-08 06:27:00,
2013-08-08 02:42:00,69.6,69.0,29.87,North,8,2.0,-999.0,96,-99.99,,,0.00,0,weatherlink.com 1.10,2013-08-08 06:42:00,
2013-08-08 02:57:00,69.3,68.0,29.87,North,359,0.0,-999.0,96,-99.99,,,0.00,0,weatherlink.com 1.10,2013-08-08 06:57:00,
2013-08-08 03:12:00,69.4,68.0,29.87,North,354,0.0,-999.0,96,-99.99,,,0.00,0,weatherlink.com 1.10,2013-08-08 07:12:00,
2013-08-08 03:27:00,69.4,68.0,29.87,North,354,2.0,-999.0,96,-99.99,,,0.00,0,weatherlink.com 1.10,2013-08-08 07:27:00,
2013-08-08 03:42:00,69.5,68.0,29.87,NW,305,0.0,-999.0,96,-99.99,,,0.00,0,weatherlink.com 1.10,2013-08-08 07:42:00,
2013-08-08 03:56:00,69.6,69.0,29.87,North,8,2.0,-999.0,96,-99.99,,,0.00,0,weatherlink.com 1.10,2013-08-08 07:56:00,
2013-08-08 04:12:00,69.7,69.0,29.87,North,8,2.0,-999.0,96,-99.99,,,0.00,0,weatherlink.com 1.10,2013-08-08 08:12:00,
2013-08-08 04:27:00,69.7,69.0,29.87,NNE,13,0.0,-999.0,96,-99.99,,,0.00,0,weatherlink.com 1.10,2013-08-08 08:27:00,
2013-08-08 04:42:00,69.7,68.0,29.88,NNE,13,1.0,-999.0,95,-99.99,,,0.00,0,weatherlink.com 1.10,2013-08-08 08:42:00,
2013-08-08 05:12:00,69.6,68.0,29.88,NNW,337,3.0,-999.0,95,-99.99,,,0.00,0,weatherlink.com 1.10,2013-08-08 09:12:00,
2013-08-08 05:27:00,69.3,68.0,29.88,NNW,345,4.0,-999.0,95,-99.99,,,0.00,0,weatherlink.com 1.10,2013-08-08 09:27:00,
2013-08-08 05:42:00,68.9,68.0,29.88,NNW,336,2.0,-999.0,96,-99.99,,,0.00,0,weatherlink.com 1.10,2013-08-08 09:42:00,
2013-08-08 05:57:00,68.6,68.0,29.88,NNW,333,3.0,-999.0,96,-99.99,,,0.00,0,weatherlink.com 1.10,2013-08-08 09:57:00,
2013-08-08 06:12:00,68.2,67.0,29.88,NNE,13,3.0,-999.0,96,-99.99,,,0.00,0,weatherlink.com 1.10,2013-08-08 10:12:00,
2013-08-08 06:27:00,67.7,67.0,29.87,North,354,5.0,-999.0,96,-99.99,,,0.00,0,weatherlink.com 1.10,2013-08-08 10:27:00,
2013-08-08 06:42:00,67.5,66.0,29.87,NNW,345,1.0,-999.0,96,-99.99,,,0.00,0,weatherlink.com 1.10,2013-08-08 10:42:00,
2013-08-08 06:57:00,67.5,66.0,29.87,North,354,4.0,-999.0,96,-99.99,,,0.00,9,weatherlink.com 1.10,2013-08-08 10:57:00,
2013-08-08 07:12:00,67.5,66.0,29.88,North,11,2.0,-999.0,96,-99.99,,,0.00,32,weatherlink.com 1.10,2013-08-08 11:12:00,
2013-08-08 07:27:00,67.5,66.0,29.88,North,4,4.0,-999.0,96,-99.99,,,0.00,51,weatherlink.com 1.10,2013-08-08 11:27:00,
2013-08-08 07:42:00,67.7,67.0,29.88,North,4,5.0,-999.0,96,-99.99,,,0.00,53,weatherlink.com 1.10,2013-08-08 11:42:00,
2013-08-08 07:57:00,67.8,66.0,29.88,NNE,19,4.0,-999.0,95,-99.99,,,0.00,102,weatherlink.com 1.10,2013-08-08 11:57:00,
2013-08-08 08:12:00,68.3,67.0,29.89,NNE,31,4.0,-999.0,95,-99.99,,,0.00,127,weatherlink.com 1.10,2013-08-08 12:12:00,
2013-08-08 08:27:00,68.7,67.0,29.89,NE,48,7.0,-999.0,93,-99.99,,,0.00,186,weatherlink.com 1.10,2013-08-08 12:27:00,
2013-08-08 08:42:00,69.4,67.0,29.89,NNE,18,5.0,-999.0,92,-99.99,,,0.00,156,weatherlink.com 1.10,2013-08-08 12:42:00,
2013-08-08 08:57:00,69.4,66.0,29.90,NE,55,6.0,-999.0,90,-99.99,,,0.00,229,weatherlink.com 1.10,2013-08-08 12:57:00,
2013-08-08 09:12:00,70.2,67.0,29.89,NNE,12,6.0,-999.0,88,-99.99,,,0.00,311,weatherlink.com 1.10,2013-08-08 13:12:00,
2013-08-08 09:27:00,70.8,67.0,29.90,ENE,60,3.0,-999.0,88,-99.99,,,0.00,323,weatherlink.com 1.10,2013-08-08 13:27:00,
2013-08-08 09:42:00,71.5,68.0,29.91,North,354,6.0,-999.0,87,-99.99,,,0.00,283,weatherlink.com 1.10,2013-08-08 13:42:00,
2013-08-08 09:57:00,71.4,67.0,29.92,NE,53,5.0,-999.0,86,-99.99,,,0.00,255,weatherlink.com 1.10,2013-08-08 13:57:00,
2013-08-08 10:12:00,71.7,67.0,29.93,North,11,7.0,-999.0,86,-99.99,,,0.00,234,weatherlink.com 1.10,2013-08-08 14:12:00,
2013-08-08 10:27:00,72.1,68.0,29.93,North,4,1.0,-999.0,87,-99.99,,,0.00,264,weatherlink.com 1.10,2013-08-08 14:27:00,
2013-08-08 10:42:00,72.8,68.0,29.92,ENE,77,2.0,-999.0,86,-99.99,,,0.00,580,weatherlink.com 1.10,2013-08-08 14:42:00,
2013-08-08 10:57:00,73.7,68.0,29.92,NE,53,7.0,-999.0,83,-99.99,,,0.00,714,weatherlink.com 1.10,2013-08-08 14:57:00,
2013-08-08 11:12:00,73.7,69.0,29.92,East,93,5.0,-999.0,84,-99.99,,,0.00,540,weatherlink.com 1.10,2013-08-08 15:12:00,
2013-08-08 11:27:00,73.9,69.0,29.92,NE,39,6.0,-999.0,84,-99.99,,,0.00,221,weatherlink.com 1.10,2013-08-08 15:27:00,
2013-08-08 11:42:00,73.7,69.0,29.93,ENE,58,5.0,-999.0,84,-99.99,,,0.00,236,weatherlink.com 1.10,2013-08-08 15:42:00,
2013-08-08 11:57:00,73.5,69.0,29.93,ENE,68,3.0,-999.0,85,-99.99,,,0.00,172,weatherlink.com 1.10,2013-08-08 15:57:00,
2013-08-08 12:12:00,73.3,69.0,29.93,NNE,22,7.0,-999.0,86,-99.99,,,0.00,230,weatherlink.com 1.10,2013-08-08 16:12:00,
2013-08-08 12:27:00,73.6,69.0,29.93,North,4,2.0,-999.0,85,-99.99,,,0.00,225,weatherlink.com 1.10,2013-08-08 16:27:00,
2013-08-08 12:42:00,73.9,69.0,29.93,North,349,4.0,-999.0,85,-99.99,,,0.00,171,weatherlink.com 1.10,2013-08-08 16:42:00,
2013-08-08 12:57:00,73.9,69.0,29.93,NNE,14,4.0,-999.0,85,-99.99,,,0.00,251,weatherlink.com 1.10,2013-08-08 16:57:00,
2013-08-08 13:12:00,74.2,69.0,29.91,North,4,4.0,-999.0,84,-99.99,,,0.00,417,weatherlink.com 1.10,2013-08-08 17:12:00,
2013-08-08 13:27:00,74.8,70.0,29.91,NNE,21,3.0,-999.0,85,-99.99,,,0.00,214,weatherlink.com 1.10,2013-08-08 17:27:00,
2013-08-08 13:42:00,74.7,70.0,29.91,NNW,343,6.0,-999.0,85,-99.99,,,0.00,262,weatherlink.com 1.10,2013-08-08 17:42:00,
2013-08-08 13:57:00,74.1,69.0,29.92,North,359,5.0,-999.0,85,-99.99,,,0.00,139,weatherlink.com 1.10,2013-08-08 17:57:00,
2013-08-08 14:12:00,73.9,70.0,29.91,NNE,23,1.0,-999.0,86,-99.99,,,0.00,123,weatherlink.com 1.10,2013-08-08 18:12:00,
2013-08-08 14:27:00,74.1,70.0,29.92,NNE,25,1.0,-999.0,87,-99.99,,,0.00,95,weatherlink.com 1.10,2013-08-08 18:27:00,
2013-08-08 14:42:00,72.9,70.0,29.91,NNE,15,2.0,-999.0,89,-99.99,,,0.00,97,weatherlink.com 1.10,2013-08-08 18:42:00,
2013-08-08 14:57:00,72.6,70.0,29.91,NNE,27,2.0,-999.0,91,-99.99,,,0.05,121,weatherlink.com 1.10,2013-08-08 18:57:00,
2013-08-08 15:12:00,72.2,70.0,29.90,North,8,3.0,-999.0,93,-99.99,,,0.08,251,weatherlink.com 1.10,2013-08-08 19:12:00,
2013-08-08 15:27:00,72.1,70.0,29.90,NE,45,4.0,-999.0,92,-99.99,,,0.09,195,weatherlink.com 1.10,2013-08-08 19:27:00,
2013-08-08 15:42:00,72.0,70.0,29.90,NNE,27,0.0,-999.0,92,-99.99,,,0.09,199,weatherlink.com 1.10,2013-08-08 19:42:00,
2013-08-08 15:57:00,72.2,70.0,29.89,NNE,24,4.0,-999.0,92,-99.99,,,0.09,216,weatherlink.com 1.10,2013-08-08 19:57:00,
2013-08-08 16:12:00,73.0,71.0,29.90,NNE,27,5.0,-999.0,92,-99.99,,,0.09,424,weatherlink.com 1.10,2013-08-08 20:12:00,
2013-08-08 16:27:00,73.5,70.0,29.90,NNE,16,6.0,-999.0,89,-99.99,,,0.09,350,weatherlink.com 1.10,2013-08-08 20:27:00,
2013-08-08 16:42:00,74.4,71.0,29.89,NE,37,3.0,-999.0,89,-99.99,,,0.09,369,weatherlink.com 1.10,2013-08-08 20:42:00,
2013-08-08 16:57:00,74.8,71.0,29.89,NNE,18,0.0,-999.0,88,-99.99,,,0.09,508,weatherlink.com 1.10,2013-08-08 20:57:00,
2013-08-08 17:12:00,74.5,70.0,29.89,ENE,59,1.0,-999.0,86,-99.99,,,0.09,193,weatherlink.com 1.10,2013-08-08 21:12:00,
2013-08-08 17:27:00,74.2,70.0,29.90,NE,34,4.0,-999.0,87,-99.99,,,0.09,128,weatherlink.com 1.10,2013-08-08 21:27:00,
2013-08-08 17:42:00,74.0,70.0,29.89,NNE,14,4.0,-999.0,88,-99.99,,,0.09,258,weatherlink.com 1.10,2013-08-08 21:42:00,
2013-08-08 17:57:00,74.4,70.0,29.89,NE,56,5.0,-999.0,86,-99.99,,,0.09,206,weatherlink.com 1.10,2013-08-08 21:57:00,
2013-08-08 18:27:00,73.9,70.0,29.89,NNE,20,5.0,-999.0,88,-99.99,,,0.09,69,weatherlink.com 1.10,2013-08-08 22:27:00,
2013-08-08 18:42:00,73.7,70.0,29.89,ENE,60,3.0,-999.0,88,-99.99,,,0.09,74,weatherlink.com 1.10,2013-08-08 22:42:00,
2013-08-08 18:57:00,73.5,70.0,29.89,East,81,1.0,-999.0,88,-99.99,,,0.09,54,weatherlink.com 1.10,2013-08-08 22:57:00,
2013-08-08 19:12:00,73.4,70.0,29.89,NE,44,0.0,-999.0,89,-99.99,,,0.09,74,weatherlink.com 1.10,2013-08-08 23:12:00,
2013-08-08 19:27:00,73.3,70.0,29.89,NNE,31,3.0,-999.0,88,-99.99,,,0.09,44,weatherlink.com 1.10,2013-08-08 23:27:00,
2013-08-08 19:42:00,73.0,70.0,29.89,NNE,33,4.0,-999.0,89,-99.99,,,0.09,25,weatherlink.com 1.10,2013-08-08 23:42:00,
2013-08-08 20:27:00,72.5,70.0,29.90,NE,50,2.0,-999.0,90,-99.99,,,0.09,5,weatherlink.com 1.10,2013-08-09 00:27:00,
2013-08-08 20:42:00,72.2,69.0,29.90,NNE,29,1.0,-999.0,90,-99.99,,,0.09,0,weatherlink.com 1.10,2013-08-09 00:42:00,
2013-08-08 20:57:00,72.1,69.0,29.90,ENE,63,3.0,-999.0,90,-99.99,,,0.09,0,weatherlink.com 1.10,2013-08-09 00:57:00,
2013-08-08 21:12:00,71.7,69.0,29.90,NE,42,0.0,-999.0,91,-99.99,,,0.09,0,weatherlink.com 1.10,2013-08-09 01:12:00,
2013-08-08 21:27:00,71.4,69.0,29.91,NE,50,3.0,-999.0,91,-99.99,,,0.09,0,weatherlink.com 1.10,2013-08-09 01:27:00,
2013-08-08 21:42:00,70.8,69.0,29.91,NNE,24,0.0,-999.0,93,-99.99,,,0.09,0,weatherlink.com 1.10,2013-08-09 01:42:00,
2013-08-08 21:57:00,70.5,68.0,29.92,NNE,24,0.0,-999.0,93,-99.99,,,0.09,0,weatherlink.com 1.10,2013-08-09 01:57:00,
2013-08-08 22:12:00,70.4,69.0,29.92,NNE,24,0.0,-999.0,94,-99.99,,,0.09,0,weatherlink.com 1.10,2013-08-09 02:12:00,
2013-08-08 22:27:00,70.2,69.0,29.92,NNE,24,0.0,-999.0,95,-99.99,,,0.09,0,weatherlink.com 1.10,2013-08-09 02:27:00,
2013-08-08 22:42:00,70.2,69.0,29.92,NNE,24,0.0,-999.0,95,-99.99,,,0.09,0,weatherlink.com 1.10,2013-08-09 02:42:00,
2013-08-08 22:57:00,70.2,69.0,29.92,NE,56,2.0,-999.0,95,-99.99,,,0.09,0,weatherlink.com 1.10,2013-08-09 02:57:00,
2013-08-08 23:12:00,70.1,69.0,29.91,NNE,12,1.0,-999.0,95,-99.99,,,0.09,0,weatherlink.com 1.10,2013-08-09 03:12:00,
2013-08-08 23:27:00,69.9,69.0,29.91,North,4,0.0,-999.0,95,-99.99,,,0.09,0,weatherlink.com 1.10,2013-08-09 03:27:00,
2013-08-08 23:57:00,69.8,68.0,29.90,NE,39,2.0,-999.0,95,-99.99,,,0.09,0,weatherlink.com 1.10,2013-08-09 03:57:00,